Time,TemperatureF,DewpointF,PressureIn,WindDirection,WindDirectionDegrees,WindSpeedMPH,WindSpeedGustMPH,Humidity,HourlyPrecipIn,Conditions,Clouds,dailyrainin,SoftwareType,DateUTC
2013-05-28 19:08:00,58.8,47.9,30.19,ESE,120,0.0,0.0,67,0.00,,,0.00,vanprod-2.5,2013-05-28 23:08:00,
2013-05-28 19:13:00,58.0,47.9,30.19,South,177,1.0,2.0,69,0.00,,,0.00,vanprod-2.5,2013-05-28 23:13:00,
2013-05-28 19:18:00,57.4,47.7,30.20,SSW,208,2.0,4.0,70,0.00,,,0.00,vanprod-2.5,2013-05-28 23:18:00,
2013-05-28 19:23:00,56.9,48.0,30.19,SSE,164,1.0,1.0,72,0.00,,,0.00,vanprod-2.5,2013-05-28 23:23:00,
2013-05-28 19:28:00,56.5,48.0,30.20,SSE,162,2.0,2.0,73,0.00,,,0.00,vanprod-2.5,2013-05-28 23:28:00,
2013-05-28 19:33:00,56.0,47.8,30.20,ENE,66,0.0,1.0,74,0.00,,,0.00,vanprod-2.5,2013-05-28 23:33:00,
2013-05-28 19:38:00,55.7,47.9,30.20,ESE,103,1.0,2.0,75,0.00,,,0.00,vanprod-2.5,2013-05-28 23:38:00,
2013-05-28 19:43:00,55.3,47.9,30.20,West,262,1.0,2.0,76,0.00,,,0.00,vanprod-2.5,2013-05-28 23:43:00,
2013-05-28 19:48:00,55.1,48.0,30.19,SSW,200,1.0,3.0,77,0.00,,,0.00,vanprod-2.5,2013-05-28 23:48:00,
2013-05-28 19:53:00,54.8,48.1,30.19,SSE,154,1.0,3.0,78,0.00,,,0.00,vanprod-2.5,2013-05-28 23:53:00,
2013-05-28 19:58:00,54.5,48.1,30.19,SSE,158,1.0,1.0,79,0.00,,,0.00,vanprod-2.5,2013-05-28 23:58:00,
2013-05-28 20:03:00,54.1,48.1,30.19,South,188,1.0,1.0,80,0.00,,,0.00,vanprod-2.5,2013-05-29 00:03:00,
2013-05-28 20:08:00,53.7,48.0,30.19,SSE,148,1.0,2.0,81,0.00,,,0.00,vanprod-2.5,2013-05-29 00:08:00,
2013-05-28 20:13:00,53.4,48.4,30.19,SSE,157,1.0,2.0,83,0.00,,,0.00,vanprod-2.5,2013-05-29 00:13:00,
2013-05-28 20:18:00,53.2,48.5,30.19,SSW,199,2.0,2.0,84,0.00,,,0.00,vanprod-2.5,2013-05-29 00:18:00,
2013-05-28 20:23:00,53.0,48.3,30.19,SSE,148,0.0,2.0,84,0.00,,,0.00,vanprod-2.5,2013-05-29 00:23:00,
2013-05-28 20:28:00,52.9,48.5,30.19,SSE,159,1.0,1.0,85,0.00,,,0.00,vanprod-2.5,2013-05-29 00:28:00,
2013-05-28 20:33:00,52.7,48.6,30.19,SSW,204,1.0,3.0,86,0.00,,,0.00,vanprod-2.5,2013-05-29 00:33:00,
2013-05-28 20:38:00,52.6,48.8,30.19,West,275,0.0,1.0,87,0.00,,,0.00,vanprod-2.5,2013-05-29 00:38:00,
2013-05-28 20:43:00,52.6,48.8,30.19,SSE,155,0.0,1.0,87,0.00,,,0.00,vanprod-2.5,2013-05-29 00:43:00,
2013-05-28 20:48:00,52.5,48.7,30.20,SSW,212,1.0,1.0,87,0.00,,,0.00,vanprod-2.5,2013-05-29 00:48:00,
2013-05-28 20:53:00,52.3,48.9,30.20,ESE,105,0.0,1.0,88,0.00,,,0.00,vanprod-2.5,2013-05-29 00:53:00,
2013-05-28 20:58:00,52.1,48.7,30.20,SSW,202,0.0,0.0,88,0.00,,,0.00,vanprod-2.5,2013-05-29 00:58:00,
2013-05-28 21:03:00,52.0,48.9,30.20,SW,231,0.0,1.0,89,0.00,,,0.00,vanprod-2.5,2013-05-29 01:03:00,
2013-05-28 21:08:00,51.9,48.8,30.20,WSW,253,0.0,0.0,89,0.00,,,0.00,vanprod-2.5,2013-05-29 01:08:00,
2013-05-28 21:13:00,51.9,48.8,30.20,South,169,0.0,1.0,89,0.00,,,0.00,vanprod-2.5,2013-05-29 01:13:00,
2013-05-28 21:18:00,51.7,48.6,30.20,South,169,0.0,0.0,89,0.00,,,0.00,vanprod-2.5,2013-05-29 01:18:00,
2013-05-28 21:23:00,51.7,48.9,30.20,WSW,248,1.0,2.0,90,0.00,,,0.00,vanprod-2.5,2013-05-29 01:23:00,
2013-05-28 21:28:00,51.6,48.8,30.20,SW,219,1.0,1.0,90,0.00,,,0.00,vanprod-2.5,2013-05-29 01:28:00,
2013-05-28 21:33:00,51.6,48.8,30.20,SSW,211,0.0,1.0,90,0.00,,,0.00,vanprod-2.5,2013-05-29 01:33:00,
2013-05-28 21:38:00,51.5,48.7,30.21,SSE,148,0.0,0.0,90,0.00,,,0.00,vanprod-2.5,2013-05-29 01:38:00,
2013-05-28 21:43:00,51.4,48.9,30.20,SSE,148,0.0,1.0,91,0.00,,,0.00,vanprod-2.5,2013-05-29 01:43:00,
2013-05-28 21:48:00,51.4,48.9,30.20,South,169,0.0,1.0,91,0.00,,,0.00,vanprod-2.5,2013-05-29 01:48:00,
2013-05-28 21:53:00,51.3,48.8,30.20,WSW,244,0.0,1.0,91,0.00,,,0.00,vanprod-2.5,2013-05-29 01:53:00,
2013-05-28 21:58:00,51.2,48.7,30.21,WSW,256,0.0,1.0,91,0.00,,,0.00,vanprod-2.5,2013-05-29 01:58:00,
2013-05-28 22:03:00,51.3,49.1,30.21,WSW,237,0.0,1.0,92,0.00,,,0.00,vanprod-2.5,2013-05-29 02:03:00,
2013-05-28 22:08:00,51.2,49.0,30.20,ESE,113,0.0,0.0,92,0.00,,,0.00,vanprod-2.5,2013-05-29 02:08:00,
2013-05-28 22:13:00,51.0,48.8,30.20,SE,134,0.0,1.0,92,0.00,,,0.00,vanprod-2.5,2013-05-29 02:13:00,
2013-05-28 22:18:00,51.0,48.8,30.20,SE,131,0.0,0.0,92,0.00,,,0.00,vanprod-2.5,2013-05-29 02:18:00,
2013-05-28 22:23:00,50.9,48.7,30.20,ESE,113,0.0,0.0,92,0.00,,,0.00,vanprod-2.5,2013-05-29 02:23:00,
2013-05-28 22:28:00,50.9,49.0,30.20,ESE,104,0.0,0.0,93,0.00,,,0.00,vanprod-2.5,2013-05-29 02:28:00,
2013-05-28 22:33:00,50.9,49.0,30.20,ESE,104,0.0,1.0,93,0.00,,,0.00,vanprod-2.5,2013-05-29 02:33:00,
2013-05-28 22:38:00,51.0,49.1,30.20,South,169,0.0,0.0,93,0.00,,,0.00,vanprod-2.5,2013-05-29 02:38:00,
2013-05-28 22:43:00,50.9,49.0,30.20,South,169,0.0,0.0,93,0.00,,,0.00,vanprod-2.5,2013-05-29 02:43:00,
2013-05-28 22:48:00,50.8,48.9,30.20,SW,218,0.0,0.0,93,0.00,,,0.00,vanprod-2.5,2013-05-29 02:48:00,
2013-05-28 22:53:00,50.6,48.7,30.20,SW,218,0.0,0.0,93,0.00,,,0.00,vanprod-2.5,2013-05-29 02:53:00,
2013-05-28 22:58:00,50.5,48.6,30.20,SSW,200,0.0,0.0,93,0.00,,,0.00,vanprod-2.5,2013-05-29 02:58:00,
2013-05-28 23:03:00,50.4,48.5,30.20,SSW,200,0.0,0.0,93,0.00,,,0.00,vanprod-2.5,2013-05-29 03:03:00,
2013-05-28 23:08:00,50.5,48.8,30.20,SSW,200,0.0,0.0,94,0.00,,,0.00,vanprod-2.5,2013-05-29 03:08:00,
2013-05-28 23:13:00,50.6,48.9,30.20,SE,139,0.0,0.0,94,0.00,,,0.00,vanprod-2.5,2013-05-29 03:13:00,
2013-05-28 23:18:00,50.5,48.8,30.20,SE,136,0.0,0.0,94,0.00,,,0.00,vanprod-2.5,2013-05-29 03:18:00,
2013-05-28 23:23:00,50.2,48.3,30.20,SE,136,0.0,0.0,93,0.00,,,0.00,vanprod-2.5,2013-05-29 03:23:00,
2013-05-28 23:28:00,49.9,48.0,30.21,SE,136,0.0,0.0,93,0.00,,,0.00,vanprod-2.5,2013-05-29 03:28:00,
2013-05-28 23:33:00,49.8,48.1,30.21,SE,136,0.0,0.0,94,0.00,,,0.00,vanprod-2.5,2013-05-29 03:33:00,
2013-05-28 23:38:00,49.9,48.2,30.20,SE,136,0.0,0.0,94,0.00,,,0.00,vanprod-2.5,2013-05-29 03:38:00,
2013-05-28 23:43:00,49.9,48.2,30.20,SE,136,0.0,0.0,94,0.00,,,0.00,vanprod-2.5,2013-05-29 03:43:00,
2013-05-28 23:48:00,50.1,48.4,30.20,SE,135,0.0,0.0,94,0.00,,,0.00,vanprod-2.5,2013-05-29 03:48:00,
2013-05-28 23:53:00,50.1,48.4,30.20,SE,135,0.0,0.0,94,0.00,,,0.00,vanprod-2.5,2013-05-29 03:53:00,
2013-05-28 23:58:00,50.0,48.3,30.20,SE,135,0.0,0.0,94,0.00,,,0.00,vanprod-2.5,2013-05-29 03:58:00,